Simultaneous Nadir Overpasses (SNOs) Predictions

Prediction of SNOs between GOES-17 and METOP-B Satellite Orbit:

Table of predicted SNOs for the next 14.0 days since TLE Epoch: 1/18/2025
Index Date Time (GOES-17) GOES-17 Lat,Lon METOP-B Lat,Lon Distance(km) Time Diff (sec)
1 01/18/2025 16:02:04 0.01,-104.70 -0.59,-101.86 322.86 80
2 01/20/2025 04:21:12 -0.01,-104.68 -0.42,-106.51 208.67 80
3 01/21/2025 03:57:58 -0.01,-104.68 0.70,-101.54 357.29 80
4 01/22/2025 16:16:56 0.01,-104.70 0.35,-106.14 165.05 80
5 01/23/2025 15:59:02 0.01,-104.71 -0.77,-101.18 401.38 80
6 01/25/2025 04:18:09 -0.00,-104.69 -0.28,-105.82 129.91 80
7 01/26/2025 03:54:54 -0.01,-104.68 0.85,-100.86 435.82 80
8 01/27/2025 16:13:53 0.01,-104.70 0.19,-105.46 87.53 80
9 01/28/2025 15:55:58 0.01,-104.70 -0.94,-100.50 478.78 80
10 01/30/2025 04:15:05 -0.01,-104.68 -0.14,-105.13 52.00 80
